sat.trackr.live / text

‹ back to catalog

STARLINK-35157

NORAD 65814 · 2025-218Z

PAYLOAD ACTIVE UNKNOWN

§ Identity

Operator
Country
US
Launch date
2025-09-26
Launch site
AFWTR
Launch vehicle
Mass (kg)
RCS (m²)

Purposes: comms

External: N2YO · Heavens-Above · Gunter

§ Orbital elements

Epoch: 2026-09-20T14:09:23.567040Z

Period
93.91 min
Inclination
97.2835°
Eccentricity
0.0001738
Mean motion
15.33458952 rev/d
Perigee alt
464.3 km
Apogee alt
466.7 km
Semi-major
6,843.6 km
B*
5.5992e-4
RAAN
120.9171°
Arg perigee
80.7338°
Mean anomaly
279.4101°
Rev number
5,434

§ Raw data

STARLINK-351571 65814U 25218Z   26263.58985610  .00018053  00000+0  55992-3 0  99922 65814  97.2835 120.9171 0001738  80.7338 279.4101 15.33458952 54344

JSON: /api/v1/satellites/65814 · /tle

For live sub-satellite position, see the globe view (requires WebGL).

§ Visibility from observer

Set your observer location to see the next 7 days of passes ≥ 10°. The values pass through the URL so the page stays shareable.

No JS? Fill the form by hand. The geolocation button needs JavaScript.